| time (UTC) | temp F | wind direction | speed MPH | gust MPH | rain 1hr in | rain 24hr in | rain mn in | humidity % | barometer mb |
| 20260905003026 | 86 | 110 | 0.0 | 0.0 | 0.00 | 0.00 | 0.00 | 76 | 1012.5 |
| 20260905001530 | 86 | 89 | 0.0 | 0.0 | 0.00 | 0.00 | 0.00 | 75 | 1012.6 |
| 20260905000030 | 87 | 113 | 0.0 | 0.0 | 0.00 | 0.00 | 0.00 | 74 | 1012.5 |
| 20260904234530 | 88 | 112 | 0.0 | 0.0 | 0.00 | 0.00 | 0.00 | 72 | 1012.3 |
| 20260904233018 | 89 | 110 | 0.0 | 0.0 | 0.00 | 0.00 | 0.00 | 70 | 1012.4 |
| 20260904231528 | 89 | 115 | 0.0 | 0.0 | 0.00 | 0.00 | 0.00 | 68 | 1012.3 |
| 20260904230030 | 90 | 72 | 0.0 | 0.0 | 0.00 | 0.00 | 0.00 | 65 | 1012.4 |
| 20260904224536 | 91 | 79 | 0.0 | 0.0 | 0.00 | 0.00 | 0.00 | 64 | 1012.3 |
| 20260904223015 | 91 | 47 | 0.0 | 0.0 | 0.00 | 0.00 | 0.00 | 63 | 1012.4 |
| 20260904221529 | 91 | 79 | 0.0 | 0.0 | 0.00 | 0.00 | 0.00 | 64 | 1012.3 |
| 20260904220026 | 92 | 89 | 0.0 | 0.0 | 0.00 | 0.00 | 0.00 | 62 | 1012.2 |
| 20260904214532 | 92 | 65 | 0.0 | 0.0 | 0.00 | 0.00 | 0.00 | 62 | 1012.4 |
| 20260904213033 | 93 | 82 | 0.0 | 0.0 | 0.00 | 0.00 | 0.00 | 62 | 1012.5 |
| 20260904211518 | 93 | 63 | 0.0 | 0.0 | 0.00 | 0.00 | 0.00 | 62 | 1012.7 |
| 20260904210026 | 92 | 68 | 0.0 | 0.0 | 0.00 | 0.00 | 0.00 | 59 | 1012.9 |
| 20260904204530 | 92 | 264 | 0.0 | 0.0 | 0.00 | 0.00 | 0.00 | 59 | 1013.1 |
| 20260904203038 | 93 | 70 | 0.0 | 0.0 | 0.00 | 0.00 | 0.00 | 56 | 1013.3 |
| 20260904201531 | 92 | 11 | 0.0 | 0.0 | 0.00 | 0.00 | 0.00 | 61 | 1013.5 |
| 20260904200018 | 90 | 30 | 0.0 | 0.0 | 0.00 | 0.00 | 0.00 | 65 | 1013.6 |
| 20260904194524 | 87 | 58 | 0.0 | 0.0 | 0.00 | 0.00 | 0.00 | 71 | 1013.7 |
| 20260904193031 | 87 | 62 | 0.0 | 0.0 | 0.00 | 0.00 | 0.00 | 65 | 1013.9 |
| 20260904191532 | 90 | 54 | 0.0 | 0.0 | 0.00 | 0.00 | 0.00 | 65 | 1014.1 |
| 20260904190033 | 94 | 24 | 0.0 | 0.0 | 0.00 | 0.00 | 0.00 | 61 | 1014.1 |
| 20260904184521 | 94 | 170 | 0.0 | 0.0 | 0.00 | 0.00 | 0.00 | 59 | 1014.3 |
| 20260904183025 | 92 | 227 | 0.0 | 0.0 | 0.00 | 0.00 | 0.00 | 66 | 1014.4 |
| 20260904181532 | 91 | 169 | 0.0 | 0.0 | 0.00 | 0.00 | 0.00 | 69 | 1014.8 |
| 20260904180034 | 90 | 222 | 0.0 | 0.0 | 0.00 | 0.00 | 0.00 | 71 | 1015.1 |
| 20260904174533 | 90 | 103 | 0.0 | 0.0 | 0.00 | 0.00 | 0.00 | 67 | 1015.2 |
| 20260904173032 | 89 | 185 | 0.0 | 0.0 | 0.00 | 0.00 | 0.00 | 73 | 1015.3 |
| 20260904171536 | 87 | 118 | 0.0 | 0.0 | 0.00 | 0.00 | 0.00 | 76 | 1015.3 |
| 20260904170032 | 85 | 118 | 0.0 | 0.0 | 0.00 | 0.00 | 0.00 | 80 | 1015.3 |
| 20260904164517 | 83 | 40 | 0.0 | 0.0 | 0.00 | 0.00 | 0.00 | 79 | 1015.6 |
| 20260904163026 | 83 | 53 | 0.0 | 0.0 | 0.00 | 0.00 | 0.00 | 79 | 1015.7 |
| 20260904161526 | 83 | 70 | 0.0 | 0.0 | 0.00 | 0.00 | 0.00 | 80 | 1015.5 |
| 20260904160046 | 83 | 68 | 0.0 | 0.0 | 0.00 | 0.00 | 0.00 | 81 | 1015.5 |
| 20260904154537 | 84 | 47 | 0.0 | 0.0 | 0.00 | 0.00 | 0.00 | 81 | 1015.4 |
| 20260904153021 | 83 | 68 | 0.0 | 0.0 | 0.00 | 0.00 | 0.00 | 81 | 1015.3 |
| 20260904151528 | 83 | 71 | 0.0 | 0.0 | 0.00 | 0.00 | 0.00 | 81 | 1014.9 |
| 20260904150041 | 83 | 290 | 0.0 | 0.0 | 0.00 | 0.00 | 0.00 | 80 | 1014.7 |
| 20260904144531 | 82 | 37 | 0.0 | 0.0 | 0.00 | 0.00 | 0.00 | 78 | 1014.7 |
| 20260904143035 | 0 | 0.0 | 0.0 | 0.00 | 0.00 | 0.00 | 1014.5 | ||
| 20260904141533 | 0 | 0.0 | 0.0 | 0.00 | 0.00 | 0.00 | 1014.5 | ||
| 20260904140048 | 0 | 0.0 | 0.0 | 0.00 | 0.01 | 0.00 | 1014.4 | ||
| 20260904134537 | 0 | 0.0 | 0.0 | 0.00 | 0.01 | 0.00 | 1014.4 | ||
| 20260904133033 | 0 | 0.0 | 0.0 | 0.00 | 0.01 | 0.00 | 1014.3 | ||
| 20260904131543 | 0 | 0.0 | 0.0 | 0.00 | 0.01 | 0.00 | 1014.2 | ||
| 20260904130048 | 0 | 0.0 | 0.0 | 0.00 | 0.01 | 0.00 | 1014.2 | ||
| 20260904124536 | 0 | 0.0 | 0.0 | 0.00 | 0.01 | 0.00 | 1014.1 | ||
| 20260904123034 | 0 | 0.0 | 0.0 | 0.00 | 0.01 | 0.00 | 1013.7 | ||
| 20260904121535 | 0 | 0.0 | 0.0 | 0.00 | 0.01 | 0.00 | 1013.5 | ||
| 20260904120036 | 0 | 0.0 | 0.0 | 0.00 | 0.01 | 0.00 | 1013.4 | ||
| 20260904114533 | 0 | 0.0 | 0.0 | 0.00 | 0.01 | 0.00 | 1013.4 | ||
| 20260904113036 | 0 | 0.0 | 0.0 | 0.00 | 0.01 | 0.00 | 1013.4 | ||
| 20260904111540 | 0 | 0.0 | 0.0 | 0.00 | 0.01 | 0.00 | 1013.5 | ||
| 20260904110039 | 0 | 0.0 | 0.0 | 0.00 | 0.01 | 0.00 | 1013.5 | ||
| 20260904104536 | 0 | 0.0 | 0.0 | 0.00 | 0.01 | 0.00 | 1013.4 | ||
| 20260904103036 | 0 | 0.0 | 0.0 | 0.00 | 0.01 | 0.00 | 1013.3 | ||
| 20260904101535 | 0 | 0.0 | 0.0 | 0.00 | 0.01 | 0.00 | 1013.2 | ||
| 20260904100033 | 0 | 0.0 | 0.0 | 0.00 | 0.01 | 0.00 | 1013.1 | ||
| 20260904094535 | 0 | 0.0 | 0.0 | 0.00 | 0.01 | 0.00 | 1013.0 | ||
| 20260904093037 | 0 | 0.0 | 0.0 | 0.00 | 0.01 | 0.00 | 1012.8 | ||
| 20260904091536 | 0 | 0.0 | 0.0 | 0.00 | 0.01 | 0.00 | 1012.8 | ||
| 20260904090039 | 0 | 0.0 | 0.0 | 0.00 | 0.01 | 0.00 | 1012.8 | ||
| 20260904084537 | 0 | 0.0 | 0.0 | 0.00 | 0.01 | 0.00 | 1012.8 | ||
| 20260904083037 | 0 | 0.0 | 0.0 | 0.00 | 0.01 | 0.00 | 1012.8 | ||
| 20260904081534 | 0 | 0.0 | 0.0 | 0.00 | 0.01 | 0.00 | 1012.8 | ||
| 20260904080035 | 0 | 0.0 | 0.0 | 0.00 | 0.01 | 0.00 | 1012.9 | ||
| 20260904074536 | 0 | 0.0 | 0.0 | 0.00 | 0.01 | 0.00 | 1013.0 | ||
| 20260904073037 | 0 | 0.0 | 0.0 | 0.00 | 0.01 | 0.00 | 1013.0 | ||
| 20260904071535 | 0 | 0.0 | 0.0 | 0.00 | 0.01 | 0.00 | 1013.0 | ||
| 20260904070039 | 0 | 0.0 | 0.0 | 0.00 | 0.01 | 0.00 | 1013.1 | ||
| 20260904064537 | 80 | 122 | 0.0 | 0.0 | 0.00 | 0.01 | 0.00 | 81 | 1013.1 |
| 20260904063037 | 81 | 120 | 0.0 | 0.0 | 0.00 | 0.01 | 0.00 | 81 | 1013.1 |
| 20260904061532 | 81 | 120 | 0.0 | 0.0 | 0.00 | 0.01 | 0.00 | 81 | 1013.1 |
| 20260904060018 | 81 | 120 | 0.0 | 0.0 | 0.00 | 0.01 | 0.00 | 81 | 1013.1 |
| 20260904054518 | 81 | 120 | 0.0 | 0.0 | 0.00 | 0.01 | 0.00 | 81 | 1013.3 |
| 20260904053027 | 81 | 120 | 0.0 | 0.0 | 0.00 | 0.01 | 0.00 | 81 | 1013.3 |
| 20260904051552 | 81 | 120 | 0.0 | 0.0 | 0.00 | 0.01 | 0.00 | 80 | 1013.3 |
| 20260904050031 | 81 | 101 | 0.0 | 0.0 | 0.00 | 0.01 | 0.00 | 80 | 1013.4 |
| 20260904044516 | 81 | 101 | 0.0 | 0.0 | 0.00 | 0.01 | 0.01 | 80 | 1013.3 |
| 20260904043022 | 81 | 101 | 0.0 | 0.0 | 0.00 | 0.01 | 0.01 | 81 | 1013.4 |
| 20260904041528 | 81 | 101 | 0.0 | 0.0 | 0.00 | 0.01 | 0.01 | 81 | 1013.3 |
| 20260904040035 | 81 | 60 | 0.0 | 0.0 | 0.00 | 0.01 | 0.01 | 81 | 1013.3 |
| 20260904034534 | 81 | 60 | 0.0 | 0.0 | 0.00 | 0.01 | 0.01 | 81 | 1013.3 |
| 20260904033016 | 81 | 60 | 0.0 | 0.0 | 0.00 | 0.01 | 0.01 | 81 | 1013.3 |
| 20260904031523 | 81 | 60 | 0.0 | 0.0 | 0.00 | 0.01 | 0.01 | 81 | 1013.4 |
| 20260904030027 | 81 | 60 | 0.0 | 0.0 | 0.00 | 0.01 | 0.01 | 81 | 1013.4 |
| 20260904024531 | 81 | 60 | 0.0 | 0.0 | 0.00 | 0.01 | 0.01 | 81 | 1013.3 |
| 20260904023012 | 81 | 60 | 0.0 | 0.0 | 0.00 | 0.01 | 0.01 | 81 | 1013.3 |
| 20260904021520 | 81 | 60 | 0.0 | 0.0 | 0.00 | 0.01 | 0.01 | 82 | 1013.1 |
| 20260904020026 | 82 | 60 | 0.0 | 0.0 | 0.00 | 0.01 | 0.01 | 82 | 1012.9 |
| 20260904014531 | 82 | 115 | 0.0 | 0.0 | 0.00 | 0.01 | 0.01 | 82 | 1012.8 |
| 20260904013031 | 82 | 115 | 0.0 | 0.0 | 0.00 | 0.01 | 0.01 | 82 | 1012.5 |
| 20260904011518 | 82 | 115 | 0.0 | 0.0 | 0.00 | 0.01 | 0.01 | 82 | 1012.5 |
| 20260904010037 | 83 | 115 | 0.0 | 0.0 | 0.00 | 0.01 | 0.01 | 81 | 1012.5 |
| 20260904004527 | 83 | 115 | 0.0 | 0.0 | 0.00 | 0.02 | 0.01 | 81 | 1012.4 |